RH
30 28 26 25 24 23 22 21 20 20 20 19 19 20 19 20 21 21 21 22 21 21 22 22 23 25 26 28 29 30 30 29 28 27 27 26 26 25 25 25 24 23 22 21 21 20 18 17 16 15 15 15 14 14 14 14 14 14 13 13 13 13 13 13 15 16 17 20 21 23 25 27 29 30 31 32 32 33 33 33 34 35 35 36 36 35
24 23 22 21 20 20 19 19 19 19 19 19 19 20 20 20 21 22 22 23 23 23 24 24 26 29 31 32 34 35 34 33 31 30 29 27 26 26 25 25 24 23 22 21 20 19 18 17 16 16 15 14 14 14 14 14 14 15 15 15 15 14 14 13 13 13 12 13 13 14 15 16 17 19 20 22 24 25 26 28 29 30 30 30 31 30
20 19 20 20 20 20 21 21 21 21 21 22 22 23 23 23 24 26 27 27 27 28 28 28 29 33 35 36 36 36 35 33 30 30 30 28 28 28 27 25 23 22 20 19 18 18 17 17 16 15 14 14 13 13 13 12 13 13 13 14 15 15 15 15 15 15 15 14 14 14 13 14 13 13 13 13 14 15 16 18 19 21 22 24 25 26
20 21 21 22 23 23 24 25 25 25 25 25 26 26 26 26 26 27 29 30 30 29 29 28 29 34 37 37 35 33 30 29 29 28 29 29 29 29 28 26 23 21 19 18 17 16 16 16 15 15 14 13 12 12 11 11 11 10 11 11 11 12 13 13 14 14 15 15 15 15 14 15 14 14 14 13 12 12 12 12 12 13 13 14 15 17
23 25 25 26 26 26 27 27 28 29 29 29 29 28 28 28 30 31 32 33 33 31 30 28 27 33 41 43 38 32 29 29 30 30 29 29 29 27 25 23 21 20 18 17 16 16 16 15 15 14 14 13 12 12 11 10 10 9 9 9 8 9 9 9 10 11 12 12 12 13 13 13 13 14 13 13 13 12 12 12 12 12 12 11 11 11
27 28 28 28 28 28 28 28 29 31 31 31 32 32 32 33 34 35 35 36 37 35 32 27 26 30 39 47 43 33 32 35 34 33 33 32 29 26 23 21 19 18 16 15 14 13 13 12 12 12 12 13 12 12 11 10 9 8 8 7 7 7 7 7 7 8 9 9 10 10 10 11 11 11 11 12 12 11 11 11 11 12 12 12 11 11
29 30 30 31 31 31 32 33 34 35 35 35 35 35 35 36 38 39 40 40 42 44 38 31 31 30 38 53 51 40 39 42 39 38 37 33 29 26 24 22 20 18 16 15 14 13 12 11 11 11 11 11 11 10 10 10 9 9 8 7 7 6 6 6 6 6 7 7 8 8 9 9 9 9 9 10 10 10 10 10 10 10 10 11 11 12
33 34 36 38 38 38 39 41 42 42 42 40 40 42 43 45 46 47 50 50 51 56 52 44 44 38 43 58 55 45 48 46 41 40 36 31 28 26 25 23 20 18 16 16 15 14 14 14 13 12 11 10 10 9 9 9 8 8 8 7 7 6 5 5 5 5 5 5 6 7 8 8 8 8 7 8 8 8 9 9 9 9 9 10 10 11
39 41 43 45 47 48 48 49 49 48 47 47 47 49 49 50 52 53 56 58 59 63 60 52 50 43 45 58 53 44 47 45 40 38 32 29 27 26 25 23 21 18 16 16 15 14 14 14 13 11 10 10 9 9 8 7 7 6 6 6 6 5 5 5 4 5 4 4 5 5 6 6 7 7 7 7 7 7 8 7 8 8 8 9 9 9
45 47 50 52 54 54 53 52 49 47 46 46 46 47 47 47 50 51 51 52 53 59 60 50 45 42 41 51 50 39 36 34 32 30 26 25 25 24 23 20 18 16 14 13 12 12 11 10 9 8 8 8 7 8 7 6 5 5 5 5 5 5 4 4 4 4 4 4 4 4 4 5 6 6 6 7 7 6 7 6 7 7 7 7 8 8
49 51 52 52 52 50 50 48 45 43 41 41 41 41 43 43 44 45 44 45 45 51 57 46 37 39 34 33 34 27 23 23 22 21 20 20 19 18 17 15 14 12 10 10 9 9 8 7 7 6 5 6 5 6 5 5 5 4 4 4 4 4 4 4 4 4 4 4 4 4 4 4 4 5 5 6 6 6 6 6 6 6 6 6 6 7
49 50 50 50 49 48 46 45 42 40 37 37 36 34 35 36 37 38 36 37 36 40 47 36 23 28 29 22 20 17 17 17 17 16 15 15 13 13 12 10 10 8 7 7 6 6 6 5 5 5 5 5 5 5 4 4 4 4 4 4 4 4 4 4 4 3 4 3 3 3 3 3 3 4 4 4 5 5 6 6 6 6 6 6 6 6
51 52 52 51 51 48 45 43 40 38 36 34 33 30 29 27 26 27 25 25 25 30 46 44 28 28 30 23 18 17 16 15 14 13 11 11 10 9 8 7 7 7 6 5 5 5 4 4 4 4 4 4 4 4 4 4 4 4 4 3 4 4 4 4 3 3 3 3 3 3 3 3 3 3 3 4 4 4 5 5 5 5 5 5 6 5
57 58 56 53 52 49 43 41 38 36 34 33 32 29 27 24 21 22 22 20 18 24 44 54 47 45 39 27 22 19 16 13 12 11 10 9 8 6 6 6 5 5 4 4 4 3 3 3 3 3 3 3 3 4 4 4 4 3 3 3 3 3 4 3 3 3 3 3 3 3 3 3 3 3 3 3 3 3 4 4 4 5 5 5 5 5
56 56 54 52 52 50 45 42 41 39 37 36 36 33 31 30 29 30 29 25 19 18 32 44 51 56 43 23 20 18 13 13 11 9 9 7 6 6 5 4 4 4 4 3 3 3 2 2 2 2 2 2 3 3 3 3 3 3 3 3 3 3 3 3 3 3 3 3 3 3 3 3 3 3 3 3 3 3 4 4 4 4 4 5 5 5
56 54 53 52 52 50 47 45 44 44 41 39 39 39 38 38 38 40 41 38 30 22 28 36 43 53 43 20 15 16 13 12 10 7 7 6 5 5 4 4 4 3 3 3 2 2 2 2 2 2 2 2 2 2 2 3 2 3 3 3 3 3 2 3 3 3 3 3 3 3 3 3 3 3 3 3 3 3 3 3 4 4 4 4 4 5
58 55 53 54 54 52 48 45 44 44 43 41 42 44 44 44 46 49 45 40 31 22 26 29 32 44 39 19 13 13 11 10 8 7 6 5 5 4 4 4 3 3 3 2 3 2 2 2 2 2 2 2 2 2 2 2 2 2 2 3 3 3 3 2 2 3 2 3 3 3 3 3 3 3 3 3 3 3 3 3 3 4 4 4 4 4
56 57 55 54 56 53 48 44 42 43 45 45 44 44 44 44 44 46 44 37 25 16 18 21 28 39 32 16 13 11 10 9 7 6 6 4 4 3 3 4 3 3 3 2 3 2 2 2 2 2 2 2 2 2 2 2 2 2 2 2 2 2 3 2 2 3 2 3 3 3 3 3 3 3 2 3 3 3 3 3 3 3 3 4 4 4
53 58 57 54 55 54 49 47 45 46 48 47 45 44 45 40 31 33 43 44 29 13 11 14 25 37 27 14 12 10 9 8 5 5 5 3 3 3 3 3 3 3 3 2 3 2 2 2 2 2 2 2 2 2 2 2 2 2 2 2 2 2 2 2 2 3 2 3 3 3 3 3 3 3 2 3 3 3 3 3 3 3 3 3 3 3
53 56 59 57 56 53 51 48 46 46 46 48 49 45 42 38 29 26 39 56 49 25 10 8 19 33 26 12 12 12 10 8 5 5 4 3 3 3 3 3 3 3 3 2 2 2 2 2 2 2 2 2 2 2 2 2 2 2 2 2 2 2 2 2 2 3 2 3 3 3 3 3 3 3 2 3 2 3 3 3 3 2 2 3 2 3
55 57 58 59 58 55 52 50 49 50 51 52 49 40 36 35 31 23 27 53 70 54 29 11 14 32 30 15 13 14 11 7 5 4 3 3 4 3 4 3 3 3 3 2 3 2 2 2 2 3 2 2 3 2 2 2 2 2 2 2 2 2 2 2 2 3 3 3 3 3 3 3 3 3 3 3 2 3 3 2 3 3 3 3 2 3
60 60 59 59 59 56 52 52 54 53 49 46 39 31 31 34 34 23 13 29 56 66 54 28 20 37 35 17 13 13 10 7 5 4 3 3 4 4 3 3 3 3 2 2 2 2 2 2 2 2 2 2 3 2 2 2 2 2 2 2 2 2 2 2 2 2 3 3 3 3 3 3 3 3 3 3 3 3 3 3 3 3 3 3 3 3
61 60 59 59 60 61 58 56 60 62 55 48 44 40 40 42 43 32 16 16 32 54 60 35 22 37 35 17 13 12 9 7 4 3 3 3 4 4 3 3 3 3 3 2 2 2 2 2 2 2 2 2 2 2 2 2 2 2 2 2 2 2 2 2 2 2 2 3 3 3 3 3 3 3 3 3 3 3 3 3 3 3 3 3 3 3
59 56 55 55 58 65 66 62 67 78 82 78 71 64 56 53 53 42 27 22 27 47 61 38 18 30 31 17 12 11 7 6 4 3 3 3 4 3 3 3 3 2 3 2 2 2 2 2 2 2 2 2 2 2 2 2 2 2 2 2 2 2 2 2 2 2 2 2 2 3 3 3 3 3 3 3 3 3 3 3 3 3 3 3 3 3
61 58 54 51 50 53 53 51 52 61 73 80 75 66 59 54 51 45 36 27 25 41 57 44 21 21 24 15 10 9 6 5 3 2 3 3 3 4 3 3 3 3 3 3 2 2 2 2 2 2 2 2 2 2 2 2 3 2 2 2 2 2 2 2 2 2 2 2 2 2 2 2 3 3 3 3 3 3 3 3 3 3 3 3 3 3
65 63 57 52 48 46 44 43 42 45 53 61 63 63 66 58 47 45 40 27 22 31 43 42 25 15 14 10 6 6 5 4 3 2 3 4 3 3 3 3 3 3 2 2 2 2 2 2 2 2 2 2 2 2 2 2 2 2 2 2 2 2 2 2 3 3 3 2 2 3 2 2 3 2 3 3 3 3 3 2 2 2 2 2 2 3
67 65 62 58 54 54 52 49 49 51 53 59 66 71 78 71 51 43 40 29 24 25 26 28 23 12 9 8 5 5 4 3 3 2 3 4 3 3 3 3 3 3 2 2 2 2 2 2 2 2 2 2 2 2 2 3 2 2 3 2 2 3 2 2 3 2 3 3 3 3 3 3 3 3 3 3 3 3 3 3 3 2 2 2 2 2
67 65 65 66 67 68 67 61 58 59 60 65 71 77 90 92 65 41 35 31 29 26 17 15 16 11 8 7 5 5 4 3 3 3 3 3 2 2 2 3 2 2 3 2 2 2 2 2 2 2 2 2 2 2 2 2 2 2 3 3 3 3 2 3 3 3 3 3 3 3 3 3 3 3 3 3 3 3 3 3 3 2 2 2 2 3
66 66 66 69 75 79 78 71 62 60 63 66 70 78 95 102 78 44 30 27 28 29 22 13 11 10 7 7 6 4 4 3 2 3 3 2 2 3 2 2 3 3 3 2 3 3 2 2 2 2 2 2 2 3 2 2 3 3 3 3 3 3 3 3 3 3 3 3 3 4 3 3 3 3 3 3 3 3 3 3 3 3 3 3 2 3
67 66 67 71 79 85 84 77 66 63 65 64 66 73 82 94 89 60 32 22 22 25 24 17 12 10 7 6 6 4 4 3 2 3 3 2 3 3 2 3 2 2 3 2 2 3 2 2 2 2 2 2 2 3 3 3 3 3 3 3 3 3 3 4 4 4 4 4 4 4 4 4 4 4 4 4 3 4 3 3 3 3 3 3 3 3
67 66 67 71 79 85 85 79 69 64 65 61 57 59 63 79 90 70 36 22 19 15 16 15 10 8 7 5 5 5 4 3 3 3 3 3 3 3 2 3 3 2 3 3 3 3 2 2 2 2 2 2 2 3 3 3 3 3 3 3 3 3 4 4 4 4 5 4 4 5 5 5 5 4 4 4 4 4 4 4 4 3 3 3 3 3
67 66 66 67 73 80 84 83 70 58 58 55 48 46 48 56 68 61 37 26 24 17 11 10 7 6 7 5 4 5 4 3 3 3 3 3 2 3 2 2 3 3 2 3 3 2 2 2 2 2 2 2 2 2 3 3 3 3 3 3 3 4 4 4 4 4 5 5 5 5 5 6 6 5 5 5 4 4 4 4 4 3 3 3 3 3
68 66 65 64 67 71 77 80 72 58 52 48 40 38 36 32 39 46 33 19 22 22 14 10 8 5 5 4 3 5 4 2 2 2 2 3 2 2 2 2 2 2 2 3 3 2 2 2 2 2 2 2 2 3 3 3 3 3 3 4 4 4 4 4 4 4 4 5 5 5 6 6 6 5 5 5 5 4 4 4 4 4 3 3 3 3
73 69 66 65 68 70 69 67 63 54 46 41 34 31 30 23 25 41 40 23 18 19 14 10 8 5 5 5 3 4 4 2 2 2 2 2 2 2 2 2 2 2 2 2 2 2 2 2 2 2 2 3 3 3 3 3 3 3 3 4 4 4 4 4 4 4 4 4 4 5 5 5 5 5 5 5 4 4 4 4 3 4 4 3 3 3
78 72 67 66 67 70 68 58 49 44 39 36 32 26 26 24 21 34 44 33 19 14 11 8 6 5 6 4 3 4 4 3 2 2 2 2 2 2 2 2 2 2 2 3 2 2 2 2 3 2 2 3 3 3 3 3 3 3 3 3 3 3 4 4 4 4 4 4 5 4 5 5 4 5 4 4 4 4 4 4 3 3 3 3 3 3
83 75 69 65 61 62 64 56 48 43 37 34 31 24 22 22 18 20 28 25 17 12 8 6 6 6 5 4 3 4 4 4 3 2 3 2 2 2 2 2 2 2 3 3 2 3 2 2 3 3 3 3 3 3 3 3 3 3 3 3 3 3 4 3 3 4 3 4 5 4 5 5 5 5 4 4 4 4 4 4 3 3 3 3 3 3
86 78 72 69 63 59 58 53 48 44 37 31 29 26 21 20 19 17 17 17 15 11 7 6 5 5 4 4 3 3 3 4 3 2 3 2 2 3 2 2 3 2 3 3 2 3 3 2 3 3 3 3 3 3 3 3 3 3 3 3 3 3 4 3 3 4 4 4 4 4 5 5 5 5 4 4 4 4 4 4 3 3 3 3 3 3
85 80 74 71 69 63 58 51 44 39 35 29 26 25 23 21 21 19 16 15 14 10 6 5 4 4 4 3 3 3 3 4 4 3 3 2 2 3 2 2 2 2 3 3 2 2 3 3 3 3 3 3 3 3 3 3 3 3 3 3 3 3 4 4 4 4 4 4 4 4 4 4 4 4 4 4 4 3 4 3 3 3 3 3 3 3
84 81 75 72 70 67 63 55 45 37 34 30 26 23 23 22 20 18 16 14 12 9 5 4 4 4 4 3 3 3 2 3 4 3 3 3 2 3 3 2 3 2 2 3 2 3 3 3 3 3 3 3 3 3 3 3 3 3 3 3 3 4 4 4 4 4 4 4 4 4 4 4 4 4 4 4 4 4 4 4 3 3 3 3 3 3
87 84 79 73 69 66 63 58 48 39 35 31 27 24 23 22 19 16 13 10 8 7 5 4 4 4 4 4 3 3 3 3 3 3 3 3 3 2 3 2 2 3 3 3 3 3 3 3 3 3 3 3 3 3 3 3 3 3 3 3 3 4 4 4 4 4 4 4 4 4 5 4 4 4 4 4 3 4 4 3 3 4 3 3 3 3
88 86 81 76 70 63 60 56 48 40 35 31 29 27 23 19 16 14 12 9 8 7 6 5 4 4 4 4 3 3 3 2 2 3 3 3 3 2 3 2 2 3 2 3 3 3 3 3 3 3 4 4 3 3 3 3 3 3 3 3 3 3 4 4 4 4 4 4 4 4 4 4 4 4 3 4 3 3 4 3 3 3 3 3 3 3
90 84 78 75 72 65 59 53 45 40 36 31 29 27 22 17 15 13 12 12 9 7 6 5 5 4 5 4 3 3 3 3 3 3 2 2 3 2 2 3 3 2 2 2 3 3 3 3 3 3 4 4 4 4 3 3 3 3 3 3 3 3 3 3 4 4 4 4 4 4 4 4 4 4 4 4 3 3 4 3 3 3 3 3 3 2
89 84 75 70 67 63 58 52 44 38 35 30 27 25 22 20 18 15 13 12 9 7 6 5 5 4 4 4 4 3 4 3 3 3 3 3 2 2 3 3 2 3 2 2 2 2 3 3 3 3 4 4 4 4 3 3 3 3 3 3 3 3 3 3 3 3 3 4 4 4 4 4 4 4 4 4 4 4 4 3 3 3 3 2 2 2
91 89 82 73 66 60 56 53 47 39 34 31 28 26 24 23 20 17 14 12 9 8 6 5 5 4 4 4 4 4 4 4 3 3 3 3 2 2 3 3 2 3 2 2 2 2 3 3 3 3 3 3 3 3 3 3 3 3 3 3 3 3 3 3 3 3 3 3 3 3 4 4 4 4 4 4 4 3 3 3 3 3 2 2 2 2
95 94 89 81 74 66 58 54 50 42 35 32 30 27 25 23 20 18 16 13 10 8 6 5 4 4 4 4 4 4 4 4 3 3 3 3 3 3 3 3 3 2 2 2 3 2 3 3 3 3 3 3 3 3 3 3 3 3 3 3 3 3 3 3 3 3 3 3 3 3 3 3 4 4 3 4 3 3 3 3 3 2 2 2 2 2
94 95 93 86 79 71 63 57 51 43 36 31 29 27 25 23 21 19 16 13 10 7 6 5 4 4 4 4 4 4 4 4 3 3 3 3 3 3 3 3 3 2 2 3 2 2 3 3 3 3 3 3 3 3 3 4 4 3 3 3 3 3 3 3 3 3 3 3 3 3 3 3 3 3 3 3 3 3 3 3 2 3 2 2 2 2
90 92 92 87 79 73 66 58 52 45 36 29 27 27 25 23 21 18 15 12 9 7 6 5 5 4 4 4 4 4 4 3 3 3 3 3 3 3 3 3 3 3 3 2 3 3 3 3 3 3 3 3 3 3 3 4 4 3 3 3 3 3 3 3 3 3 3 3 3 3 3 3 3 3 3 3 3 3 3 3 3 3 2 2 3 2
86 84 85 83 77 72 64 57 52 48 40 33 29 27 23 20 17 15 13 11 8 7 6 5 5 4 4 3 4 4 4 4 4 3 3 3 3 3 3 3 3 3 2 2 3 3 3 3 3 3 3 3 3 3 3 3 3 3 3 3 3 3 3 3 3 3 3 3 3 3 3 3 3 3 3 3 3 3 3 3 3 3 2 3 3 3
84 79 77 75 71 66 58 51 48 46 40 34 29 25 21 18 15 14 12 10 8 7 5 5 5 5 4 3 4 4 5 4 4 3 3 3 3 3 3 3 3 3 2 2 2 2 3 3 3 3 3 3 3 3 3 3 3 3 3 3 3 3 3 3 3 3 3 3 3 3 3 3 3 4 3 3 3 3 3 3 2 3 3 3 3 3
87 81 75 70 67 61 53 47 43 39 36 31 26 23 20 17 15 14 13 11 9 7 5 4 4 4 4 4 4 4 5 5 4 3 3 2 3 3 3 3 3 3 2 3 3 3 3 3 3 3 3 3 3 3 3 3 3 3 3 3 3 3 3 3 3 3 3 3 3 3 3 3 3 3 3 3 3 3 3 3 3 3 3 3 3 3
88 80 73 67 62 56 50 46 42 39 36 32 26 22 20 17 16 15 14 12 10 7 6 5 4 4 5 4 4 4 5 5 4 4 3 3 3 3 2 3 3 3 3 3 3 3 3 3 3 3 3 3 3 3 3 3 3 3 3 3 3 3 3 3 3 3 3 3 3 3 3 3 4 3 3 3 3 3 3 3 3 3 3 3 3 3
Wind_Speed
54 55 56 57 58 58 58 59 60 60 62 63 64 65 65 65 68 70 71 73 74 75 76 77 78 80 82 84 86 88 90 91 92 93 94 95 96 97 98 100 101 102 103 103 104 105 105 105 105 105 105 105 106 106 106 107 108 109 110 111 112 112 113 113 114 116 117 119 120 122 123 124 124 125 126 125 125 125 125 125 125 125 125 124 124 124
53 54 55 56 56 57 59 60 61 62 63 65 65 66 67 67 68 71 73 74 76 76 77 78 79 80 82 84 86 89 91 93 94 95 96 97 98 99 100 101 103 104 105 105 106 106 107 107 106 106 105 104 104 104 105 105 106 107 108 109 110 111 111 111 111 112 112 113 113 115 116 118 119 121 122 123 124 125 126 127 127 127 128 127 128 128
52 53 54 56 57 58 60 62 63 64 65 66 67 67 68 69 69 70 72 74 76 77 77 78 79 80 82 84 86 88 91 93 95 96 98 99 100 101 102 104 104 105 106 106 107 107 107 108 108 107 106 106 105 104 104 103 103 103 104 104 105 106 108 108 109 110 111 111 112 112 112 113 114 115 116 117 118 119 121 123 124 126 127 128 128 129
53 54 55 57 58 60 61 63 64 66 67 68 68 69 70 71 71 70 71 74 76 78 79 79 79 80 82 84 87 89 92 93 95 97 99 100 102 103 104 106 106 106 106 106 107 107 108 108 108 108 108 107 106 105 104 103 102 102 101 101 101 101 102 103 104 105 107 108 109 110 110 110 111 113 113 114 114 115 116 118 119 121 122 123 125 126
53 55 56 58 59 60 61 62 64 65 68 69 70 71 71 72 73 74 74 75 77 80 82 83 82 81 83 86 89 92 93 95 96 98 100 101 103 104 106 106 106 106 105 105 106 106 107 107 107 107 108 108 107 106 104 103 102 102 101 100 99 99 99 99 100 101 102 103 105 106 107 107 108 109 110 111 112 113 114 115 116 117 118 119 120 122
54 55 56 57 59 60 61 63 63 64 66 68 70 71 72 72 73 74 75 76 77 79 83 85 84 82 82 85 89 92 94 95 98 99 101 103 104 105 106 106 106 106 105 105 104 104 104 104 103 104 105 106 106 106 105 104 104 103 102 101 100 99 99 98 98 98 99 100 101 103 104 105 106 106 106 107 108 109 111 112 114 115 116 117 118 119
53 54 56 57 59 60 62 63 64 65 66 68 69 70 72 72 73 74 75 75 76 77 81 85 85 84 82 83 88 92 94 96 99 101 103 105 106 106 107 107 107 107 107 107 106 105 104 103 103 103 104 104 104 104 104 103 104 104 103 102 101 100 99 99 98 98 98 99 99 100 102 104 105 105 105 105 105 106 108 109 111 112 113 114 115 117
52 53 54 56 59 60 61 62 64 65 67 68 69 69 70 71 72 72 73 74 74 75 79 83 85 85 83 83 88 91 94 97 99 102 104 106 107 107 108 109 109 108 108 107 107 106 106 106 106 105 105 105 105 105 104 104 103 103 103 102 102 101 100 98 98 98 98 99 99 99 101 102 103 104 104 104 104 105 106 107 108 109 110 111 113 114
53 54 55 56 58 61 62 63 64 65 66 67 67 68 68 69 70 71 71 72 72 73 77 82 84 86 83 83 88 91 94 97 99 102 105 106 106 107 109 109 109 108 107 106 106 105 105 106 106 105 104 104 106 107 107 106 104 103 103 102 101 101 101 99 97 97 98 98 99 99 100 101 101 102 103 103 104 104 105 106 107 107 108 109 110 112
54 54 56 57 58 60 62 63 64 65 65 65 64 65 66 67 67 69 69 70 70 70 74 80 84 86 85 83 87 92 94 97 99 101 103 103 104 105 105 106 105 104 103 102 102 101 102 102 102 101 101 101 103 105 107 106 105 103 102 102 102 101 101 100 98 97 97 97 98 98 99 100 100 100 101 101 102 103 105 106 106 107 107 108 108 110
55 55 55 57 57 59 61 64 65 65 64 64 63 61 62 63 64 67 68 68 68 67 71 78 81 84 87 86 88 91 93 95 97 98 98 98 99 99 100 99 98 97 95 94 93 93 94 96 97 98 98 99 100 102 104 104 104 103 102 102 101 101 102 101 100 98 97 97 98 98 98 98 98 99 99 100 101 102 103 105 106 107 107 108 108 108
55 55 56 58 58 60 62 64 65 65 65 64 64 62 60 60 60 62 65 66 66 66 70 75 77 81 87 88 87 89 90 92 93 94 94 93 93 93 93 92 90 89 88 87 86 86 89 92 93 94 95 97 99 100 101 102 102 102 102 101 100 101 101 101 101 100 99 98 98 97 97 96 96 96 97 98 100 101 103 104 105 106 106 107 107 108
57 58 60 61 62 63 63 64 66 66 66 65 65 64 62 60 59 59 61 61 61 63 67 73 75 78 84 86 85 86 86 87 88 88 89 89 88 87 87 86 85 84 83 82 82 85 88 90 90 89 91 93 95 97 98 99 100 100 100 99 98 98 100 100 100 99 98 98 98 97 95 95 95 94 95 96 97 99 101 103 104 105 106 106 106 107
58 60 62 64 65 66 67 67 67 67 68 69 69 69 69 69 67 67 67 66 63 61 64 71 74 76 81 81 80 81 80 80 81 82 82 83 83 82 82 82 82 80 79 80 81 84 86 87 86 86 87 88 89 90 92 94 96 96 96 96 95 95 96 98 98 98 97 97 96 95 94 93 93 93 93 94 95 97 99 100 102 103 104 105 106 106
61 63 65 66 68 69 71 72 72 72 73 73 74 75 76 77 77 77 77 77 74 69 68 73 76 80 83 80 78 80 79 80 79 78 79 79 79 79 77 78 78 77 78 80 81 81 82 81 81 81 81 81 81 82 84 86 88 90 91 92 92 92 92 93 94 95 96 96 95 94 93 92 92 91 91 91 92 94 96 98 99 101 102 103 104 106
66 68 69 71 72 73 74 76 76 76 77 78 79 79 80 80 80 80 81 82 82 78 76 77 79 85 88 83 81 81 82 83 80 77 78 78 78 77 75 73 74 75 76 78 79 79 78 77 76 75 75 74 74 74 75 77 79 81 83 86 87 88 88 88 89 90 92 93 93 92 91 91 91 91 90 89 89 90 92 94 96 98 100 102 103 104
67 70 72 73 74 75 76 78 79 79 80 81 81 82 83 83 83 82 81 81 82 79 78 79 81 88 92 88 84 84 85 85 82 79 79 78 76 73 69 69 70 72 74 75 76 76 76 75 74 72 71 71 70 69 70 71 71 72 74 77 79 81 83 84 84 85 86 87 89 89 89 89 89 89 88 87 87 87 87 89 91 94 96 98 100 102
67 69 73 74 75 76 78 80 81 82 81 82 83 84 84 85 85 86 86 85 82 79 78 81 85 91 95 93 89 87 89 87 83 81 80 76 72 67 65 68 68 69 71 72 73 73 73 72 71 69 68 66 66 65 66 67 67 68 68 69 72 74 75 77 78 80 80 82 84 84 85 86 86 86 86 85 85 85 85 85 86 88 90 93 95 97
69 69 72 75 76 77 80 81 82 82 82 82 83 84 85 85 86 88 91 92 89 83 79 80 87 94 96 94 91 90 92 89 83 80 78 74 69 65 65 67 66 66 68 69 70 70 70 69 67 66 64 63 62 62 62 63 64 65 64 65 66 67 69 70 71 73 74 76 78 79 80 81 82 83 83 83 82 83 83 83 83 83 84 86 88 89
72 71 73 75 77 79 80 81 82 82 82 82 82 83 84 85 87 88 91 94 94 89 84 79 83 94 98 93 91 94 95 91 83 78 75 69 65 64 67 67 64 65 66 67 67 67 67 66 64 63 61 60 60 59 60 60 61 61 61 61 61 62 64 65 66 67 68 70 72 73 75 76 77 78 79 79 79 79 80 81 82 82 81 81 81 82
74 74 74 75 77 79 81 81 82 82 82 81 82 84 84 86 88 88 89 93 96 96 95 88 85 95 101 96 94 96 96 91 83 76 70 65 64 66 67 66 64 64 65 66 66 65 64 63 61 60 59 58 57 57 57 58 59 59 59 59 59 59 60 61 63 64 65 66 67 68 70 71 72 73 74 75 76 76 77 78 79 80 80 80 80 80
75 76 76 77 78 80 82 82 81 82 83 83 85 86 87 87 89 91 90 92 96 99 101 98 93 97 104 101 97 97 96 90 82 73 66 63 65 66 64 63 63 62 63 63 64 63 61 59 58 57 57 55 55 54 55 55 56 57 57 57 57 58 58 59 60 60 62 63 64 65 66 67 68 69 69 71 72 73 74 75 76 77 78 79 80 80
78 78 79 79 79 80 82 81 80 80 81 83 85 86 87 88 91 94 94 94 96 98 101 99 94 97 104 103 99 98 97 89 79 70 63 61 65 66 61 60 61 61 62 62 62 61 59 56 54 54 54 53 52 52 52 53 54 54 54 54 54 55 56 57 57 58 58 59 60 61 62 63 64 64 65 66 67 69 70 72 74 75 76 77 78 78
81 82 82 80 79 79 80 80 79 78 79 81 83 84 87 88 91 95 97 96 96 98 103 100 92 93 101 102 99 98 95 86 75 66 59 58 61 62 58 57 57 58 60 60 60 60 58 55 52 50 51 51 50 49 49 50 52 53 53 53 52 53 53 54 55 55 55 56 57 58 59 60 61 62 63 63 64 66 67 68 70 72 74 75 75 76
83 86 87 87 86 84 84 85 84 83 83 85 86 88 89 91 93 95 98 98 95 95 102 104 95 92 97 99 96 95 90 81 71 62 57 56 57 56 54 53 52 53 55 57 58 58 56 54 51 48 48 48 48 48 48 48 50 51 52 52 52 52 51 51 52 52 53 53 54 55 56 57 58 59 61 61 63 64 65 66 67 69 70 71 72 74
84 87 90 93 94 94 95 95 94 92 90 89 90 91 91 93 95 97 99 100 96 93 97 104 100 91 90 92 92 91 87 78 67 60 58 58 54 50 49 49 49 48 50 52 54 55 54 52 49 48 47 46 46 47 48 49 49 50 50 50 50 50 49 49 49 49 50 50 52 53 54 54 55 57 58 59 60 61 62 63 65 66 67 68 69 71
86 87 90 93 95 96 97 97 96 94 92 90 91 92 92 93 95 98 101 102 99 94 92 97 101 96 91 92 93 91 87 78 68 60 57 56 52 47 47 48 47 47 46 47 49 50 51 49 47 45 45 45 45 46 48 49 50 49 48 48 47 46 47 46 46 45 45 46 47 48 49 51 53 54 55 56 57 58 59 60 61 63 64 65 66 68
87 88 89 90 92 92 93 93 93 91 91 90 91 91 91 93 94 96 101 103 102 98 92 91 96 97 95 94 94 93 89 79 67 59 56 53 50 47 47 47 47 47 46 46 47 47 48 47 44 42 41 42 43 45 46 47 48 47 46 44 43 42 42 43 42 42 42 42 42 43 44 46 48 50 51 53 54 56 57 58 59 60 61 61 62 64
88 89 88 88 89 89 89 91 91 90 90 90 91 92 91 92 93 95 99 102 102 102 100 96 96 98 98 95 92 92 89 77 64 58 57 54 51 50 49 47 47 48 47 47 48 48 48 47 45 42 41 40 41 42 43 43 44 43 42 41 39 38 37 38 39 40 40 40 40 41 42 44 46 47 49 51 52 53 54 55 56 57 57 58 59 60
89 90 89 88 88 87 87 89 91 90 89 90 91 91 91 92 94 96 99 100 99 101 104 104 102 100 99 95 89 88 87 76 66 62 62 58 54 52 51 49 48 47 47 47 48 49 49 48 46 45 43 41 40 39 40 40 40 40 40 38 36 35 34 35 37 38 39 40 39 40 42 43 45 46 48 50 51 51 52 53 54 54 54 54 55 56
90 90 90 89 88 87 87 88 90 90 89 91 92 92 91 91 92 96 101 102 99 97 98 100 100 98 96 92 88 88 88 78 68 66 66 63 58 54 51 49 48 47 47 46 46 48 48 47 46 45 44 43 41 39 38 39 39 39 38 37 36 34 33 34 35 37 38 39 39 39 41 42 44 46 48 49 49 50 50 52 53 52 52 52 53 53
91 91 91 90 89 89 89 89 91 92 91 92 92 92 91 92 92 96 103 107 106 103 99 95 94 94 91 85 81 84 87 79 67 64 63 62 61 58 53 50 49 47 47 46 45 45 45 46 46 45 44 43 42 40 39 39 39 38 37 36 36 35 34 34 35 36 37 38 38 38 39 40 43 45 46 47 48 48 50 51 52 51 50 51 51 51
93 93 92 92 91 91 91 90 92 93 92 92 94 94 95 96 95 97 102 106 107 106 104 100 96 93 90 84 79 81 86 81 70 65 61 58 59 60 57 54 51 49 47 46 45 44 44 44 45 44 43 42 40 40 39 39 39 38 36 35 35 35 35 35 35 36 37 36 36 37 38 39 41 43 44 45 46 47 48 50 51 50 50 50 50 50
96 96 95 95 94 92 92 92 92 93 94 96 99 99 99 100 99 99 101 104 103 101 102 100 97 95 94 91 86 83 82 77 70 66 64 59 55 55 56 55 53 50 49 47 46 44 43 43 43 42 41 40 39 38 38 38 38 37 36 35 35 35 36 36 36 36 36 36 35 36 38 39 40 41 42 44 44 45 46 47 47 47 48 49 49 50
99 98 98 98 97 95 95 95 96 98 99 101 102 101 101 101 101 98 99 103 104 101 100 98 98 98 97 92 85 81 79 73 66 62 62 59 55 52 52 52 52 50 49 48 46 45 44 43 43 42 41 39 38 37 37 36 36 36 35 34 35 36 36 37 36 35 35 35 35 36 38 39 40 41 42 43 43 43 43 43 44 45 46 47 47 48
102 101 101 100 100 99 98 99 100 101 101 100 101 103 103 104 104 102 101 104 106 103 100 98 96 95 92 86 80 77 78 75 68 62 60 58 56 52 49 48 49 49 48 47 45 44 44 42 41 41 40 39 38 37 36 35 34 35 34 33 33 34 35 35 35 34 33 34 35 36 37 38 39 41 41 42 42 42 42 42 42 43 44 45 45 46
105 103 102 102 102 103 102 102 101 100 100 101 103 105 107 108 109 108 105 105 106 104 100 95 91 88 86 83 78 74 74 76 73 67 62 60 58 56 52 49 48 48 47 46 44 41 41 40 38 37 37 37 37 36 35 34 33 33 33 33 33 33 33 33 33 32 32 34 35 35 35 37 39 40 40 39 39 40 40 40 41 41 42 43 44 44
108 106 105 104 103 103 103 103 104 103 103 105 105 106 108 109 110 109 107 105 104 103 99 94 90 88 86 82 79 75 72 73 73 70 67 64 61 59 56 53 50 49 47 46 44 41 39 39 38 36 35 36 36 35 35 33 32 32 32 32 32 32 32 32 32 31 32 33 33 34 35 36 38 39 39 38 37 38 39 40 40 40 41 42 42 42
110 109 107 105 104 103 102 103 105 106 105 106 107 107 108 108 109 109 107 104 102 101 99 94 92 92 89 85 83 80 75 72 72 72 70 68 64 60 58 56 54 52 49 47 45 42 39 38 38 37 36 36 36 35 34 33 32 31 31 31 31 31 31 30 30 30 30 30 30 31 33 35 36 37 37 37 37 37 38 39 39 39 40 40 40 40
113 111 109 106 105 104 102 102 103 105 106 106 108 109 108 107 108 109 108 106 105 105 103 100 96 95 94 90 88 86 83 79 76 75 73 71 68 64 60 58 55 53 51 48 46 44 40 37 37 38 39 39 38 36 35 34 32 31 31 31 30 30 29 29 29 29 28 28 28 30 32 34 34 35 36 36 36 37 37 38 38 38 38 38 38 38
116 114 111 109 107 106 105 103 102 103 105 105 106 109 110 109 109 111 112 113 112 110 108 106 104 101 99 96 92 90 88 84 81 78 75 72 70 67 64 62 58 54 49 46 43 43 41 38 36 36 37 39 39 38 37 35 34 32 31 31 30 29 29 29 29 28 28 27 28 30 31 32 33 34 35 35 36 36 36 37 36 35 35 35 35 35
120 118 116 113 110 109 108 106 104 104 106 107 107 109 113 114 115 116 116 116 115 113 110 108 107 104 101 98 93 90 87 84 81 79 76 72 69 67 65 63 61 57 52 47 43 41 42 41 39 37 36 37 37 36 36 35 33 32 31 31 30 29 29 29 29 28 27 28 29 30 31 31 32 33 34 34 34 34 34 34 33 32 32 31 31 30
124 122 120 118 115 113 111 111 111 110 110 111 112 113 116 119 120 119 117 115 114 113 110 106 104 101 98 94 90 87 85 82 79 77 75 72 69 67 64 62 60 58 55 50 45 43 42 42 40 38 37 36 36 35 35 35 33 32 32 31 30 29 29 29 29 29 28 28 29 29 30 30 31 31 31 31 32 32 32 31 30 29 28 27 26 25
126 126 124 122 120 118 116 115 114 114 112 112 114 115 116 118 119 119 118 116 114 111 108 103 99 96 94 90 87 84 82 81 78 76 74 72 69 67 65 63 61 59 56 52 48 45 43 42 40 38 36 35 36 36 36 35 34 33 32 31 30 29 28 28 28 29 28 28 28 28 28 28 29 29 29 29 30 30 29 28 27 25 24 23 22 22
128 128 126 123 120 119 117 115 113 112 111 110 111 113 115 116 117 117 117 115 112 109 106 102 97 94 92 90 87 84 82 80 78 75 73 71 70 67 65 63 60 59 57 54 51 48 44 41 39 37 36 34 34 35 35 35 34 33 32 31 30 29 27 27 28 28 27 27 26 26 26 27 27 27 27 28 27 27 26 25 24 23 21 20 20 20
129 129 127 124 120 116 114 113 111 110 110 109 109 111 113 114 114 115 115 114 112 110 107 103 98 94 92 90 88 85 81 79 77 74 71 70 68 66 64 62 60 59 57 55 52 50 47 45 42 39 38 36 35 34 33 34 34 33 31 30 30 28 27 27 27 27 26 26 25 25 25 25 26 26 26 26 25 24 23 23 22 21 20 19 18 17
130 129 127 124 121 117 113 111 109 109 109 109 108 108 108 109 110 112 114 114 112 111 108 105 101 96 92 89 88 85 82 78 76 73 70 68 66 64 62 60 59 58 56 54 52 50 49 47 45 42 40 38 36 34 32 32 32 32 31 29 29 28 27 27 26 26 25 25 25 25 25 25 25 25 24 24 23 22 21 21 20 19 17 16 15 15
131 130 128 126 123 119 115 111 108 106 106 106 106 106 107 107 109 111 113 113 112 110 108 105 103 99 93 88 86 85 82 79 76 73 69 67 66 64 62 60 58 56 55 53 51 50 49 48 46 44 41 38 36 34 32 30 31 31 30 28 28 27 27 27 27 26 25 25 25 25 24 25 24 23 23 22 20 19 19 18 17 16 15 14 14 15
132 131 129 127 124 120 117 114 110 107 106 106 107 108 109 111 111 112 113 113 112 110 106 102 101 100 96 91 87 85 83 80 77 74 70 67 66 65 64 62 59 56 54 52 51 50 49 49 47 44 42 40 38 35 33 31 31 30 29 28 27 27 27 27 27 25 25 25 25 24 24 23 23 21 21 20 18 17 16 15 14 13 14 14 15 15
133 132 129 128 125 122 120 119 117 115 113 113 112 112 113 114 115 115 115 115 114 112 108 103 99 97 96 93 89 85 83 81 78 75 73 69 67 65 63 62 60 58 55 53 52 51 50 49 47 45 44 42 40 38 35 33 32 31 30 28 27 27 27 27 25 24 24 24 24 23 23 21 20 19 18 17 16 15 13 12 12 13 14 14 14 14
135 134 131 129 127 126 125 124 122 120 119 118 117 117 117 117 117 117 117 117 117 114 112 108 102 97 95 94 91 87 84 82 78 75 73 70 68 66 63 61 60 58 56 54 53 51 50 49 48 46 44 43 41 39 36 34 33 32 31 29 28 27 27 26 24 23 23 24 23 22 21 19 18 17 16 15 15 13 11 11 12 13 13 13 13 12
Wind_Direction
300 300 301 300 300 300 300 299 299 298 298 297 296 295 295 294 294 293 293 292 292 292 291 292 291 291 290 289 288 288 287 286 286 286 286 285 285 285 284 283 283 282 282 281 280 280 279 278 277 277 276 275 274 273 272 271 271 270 270 269 269 268 268 267 266 266 265 265 265 265 265 265 265 265 265 265 265 265 265 265 265 265 265 265 265 265
303 303 303 303 303 303 303 302 302 302 301 300 299 298 297 297 296 295 295 295 294 294 294 293 292 291 289 288 288 287 286 286 287 287 286 286 286 285 285 284 283 283 283 283 282 282 282 281 280 280 279 277 276 275 274 273 272 271 270 270 270 269 269 269 268 268 267 266 265 265 265 265 264 264 263 264 264 264 264 264 264 264 264 264 264 264
306 306 306 307 307 307 307 306 305 304 303 302 301 300 299 298 297 296 296 295 295 295 293 293 292 290 288 287 287 286 286 287 287 287 287 287 286 285 285 284 284 284 284 284 284 284 284 283 283 282 281 281 280 279 277 276 274 272 271 270 269 269 268 268 268 268 267 267 266 266 266 265 265 264 263 262 262 262 262 262 262 262 262 262 262 263
310 311 311 311 311 310 308 307 306 305 305 304 303 302 301 301 300 299 297 297 296 296 295 294 293 291 290 289 289 288 289 289 289 288 288 287 286 286 285 285 285 285 285 285 286 285 285 284 284 284 283 283 282 281 280 278 276 275 273 271 269 268 267 267 266 266 265 265 265 264 264 264 264 264 264 263 262 262 261 261 261 261 261 261 261 261
315 314 314 313 311 310 309 308 307 307 306 306 306 305 305 305 304 303 301 300 299 299 298 297 297 295 293 292 292 292 292 291 290 289 289 288 287 286 286 286 286 286 286 286 286 285 285 284 284 284 283 283 283 282 281 280 278 276 274 272 270 268 266 265 265 264 264 264 263 263 262 261 261 261 262 262 262 262 261 261 260 260 260 260 260 260
317 316 315 314 312 312 312 311 311 309 309 309 308 308 307 306 305 303 302 301 300 299 298 298 298 297 294 292 292 293 293 292 290 290 289 288 288 288 288 288 288 288 288 288 288 287 286 285 285 284 284 283 283 282 281 279 278 276 274 272 270 268 266 265 264 263 262 262 262 262 261 261 260 259 259 260 260 261 261 260 260 260 260 260 260 260
319 318 318 317 317 317 316 315 315 313 312 311 310 309 308 307 305 304 302 301 300 299 298 299 299 299 297 293 292 294 293 291 291 290 289 289 289 290 290 290 290 290 289 289 290 290 289 288 287 286 285 284 283 281 279 278 276 275 273 271 269 267 266 264 263 262 261 260 260 260 260 260 259 258 258 258 258 259 259 259 259 259 259 259 259 259
324 324 323 323 322 321 320 319 318 316 315 314 313 311 310 308 306 305 303 302 302 301 300 300 299 300 299 294 292 293 291 290 290 290 290 290 291 291 291 291 290 290 290 290 290 289 289 288 287 286 285 284 283 281 279 278 276 274 273 271 270 268 266 264 263 261 260 258 258 258 258 259 259 258 257 256 256 257 257 257 258 258 258 258 258 258
329 329 329 329 328 326 325 323 322 321 319 318 316 314 312 310 308 307 305 304 304 302 300 300 299 299 298 294 292 293 290 290 290 289 290 291 291 291 290 290 289 289 289 289 289 288 287 286 285 283 283 282 281 280 279 277 276 274 273 272 271 270 268 266 264 263 261 259 257 256 256 257 257 258 258 257 256 255 255 256 256 256 256 256 257 257
333 334 334 334 333 331 329 328 327 326 324 322 319 317 315 313 310 308 306 304 303 302 300 299 299 299 297 293 291 292 291 290 290 290 291 291 291 290 289 289 289 289 289 289 288 287 285 284 282 281 280 278 277 277 276 276 276 275 274 273 273 272 271 270 268 266 264 262 260 257 255 255 255 256 257 257 257 256 255 255 255 255 255 255 255 256
336 337 337 337 336 335 335 333 332 331 329 326 322 319 316 313 311 308 307 305 304 302 300 298 298 297 295 293 291 292 292 292 291 292 292 292 292 292 291 291 290 290 290 289 287 286 284 282 280 279 277 276 275 274 274 275 275 275 275 274 274 273 273 272 271 269 267 265 263 261 258 256 255 254 255 255 256 257 256 256 255 254 254 254 254 254
337 338 338 338 338 339 339 338 336 334 332 329 325 322 318 315 312 309 307 305 303 302 299 297 297 295 294 294 294 295 295 295 296 296 295 294 294 295 295 294 293 292 291 290 289 286 282 279 278 277 276 275 275 274 274 274 275 275 274 274 273 273 273 272 272 271 270 269 267 265 263 260 258 256 255 254 255 255 256 256 256 256 255 254 254 254
339 340 340 340 339 340 341 340 338 336 334 330 327 324 322 319 316 313 309 307 306 304 302 300 300 299 297 298 300 300 300 301 300 300 299 299 299 299 298 296 295 294 293 291 289 285 282 280 278 277 275 275 274 275 275 274 274 274 274 274 273 272 272 272 272 272 271 270 269 268 267 265 262 260 258 256 256 256 256 256 256 256 256 256 256 255
339 339 340 340 340 340 342 341 339 337 335 333 330 328 327 326 325 322 319 317 316 313 310 307 307 305 301 302 304 304 305 305 304 304 303 303 302 301 298 296 296 295 293 290 286 284 282 281 280 278 276 275 274 274 274 274 275 275 275 274 273 272 271 271 272 271 271 270 270 269 268 267 265 263 261 260 259 258 258 258 257 257 257 257 257 256
339 339 340 341 341 341 343 342 340 338 337 336 334 333 332 331 330 328 325 323 323 322 319 316 314 311 308 308 310 311 311 311 310 310 309 307 305 303 301 300 298 296 292 289 286 284 283 282 281 279 278 277 275 274 273 273 273 274 274 274 274 273 271 271 271 271 271 271 271 270 269 268 267 266 265 263 262 261 260 260 259 259 258 258 257 257
340 340 341 342 342 343 343 343 340 339 338 338 337 335 334 332 330 328 326 324 324 325 324 321 319 317 316 316 316 317 317 316 315 315 314 312 309 308 307 304 299 295 292 290 288 287 287 286 285 283 282 281 279 277 275 273 272 271 271 272 272 272 272 271 271 270 271 271 271 271 271 270 269 268 267 266 265 263 262 261 260 259 259 258 258 257
341 340 342 343 342 343 343 343 341 340 339 339 337 336 334 332 329 326 324 323 324 327 326 324 323 323 322 321 320 321 320 319 320 321 318 315 312 311 309 304 298 295 293 292 291 290 289 288 288 287 287 286 284 282 279 276 273 271 270 270 270 270 270 271 271 270 270 270 270 271 271 271 271 270 269 268 267 266 264 262 261 260 259 259 258 258
343 342 342 343 342 342 343 343 342 341 339 338 337 336 334 332 329 326 325 325 327 329 330 329 329 327 325 324 323 324 323 322 324 323 320 317 315 313 309 302 298 297 295 293 292 292 291 290 290 290 289 288 286 284 281 279 277 275 273 271 271 270 270 269 270 270 270 270 270 270 270 270 271 271 270 270 269 267 266 264 263 261 260 259 259 259
345 344 343 343 342 342 343 343 342 341 339 337 337 336 333 331 330 330 328 327 329 332 333 333 333 330 327 325 326 326 324 324 325 325 322 320 318 314 306 301 300 299 297 295 294 293 293 293 293 293 292 290 289 286 284 282 280 278 276 274 273 272 271 270 269 269 269 269 269 269 269 269 270 270 270 269 268 267 267 266 265 263 262 261 260 259
345 345 344 343 343 342 343 342 341 340 339 337 336 335 333 332 333 332 330 328 330 334 335 336 337 332 327 327 328 327 326 325 326 326 325 323 320 313 306 304 304 302 300 298 297 295 295 295 295 295 294 292 291 289 286 284 282 281 279 278 276 274 273 272 271 270 269 268 268 268 268 268 268 269 269 269 268 267 266 266 266 266 265 264 263 262
346 346 346 344 342 342 342 342 342 340 339 337 335 335 335 334 334 333 332 331 332 334 335 337 340 334 328 328 329 328 327 327 329 329 327 324 320 314 309 308 307 305 302 300 299 298 298 298 298 297 295 293 292 289 287 286 284 283 282 280 279 277 275 274 273 272 270 269 268 268 268 268 267 267 268 268 268 268 267 266 266 266 266 266 266 265
346 346 346 345 343 342 342 342 342 340 338 337 337 338 338 336 335 335 336 336 335 335 335 336 339 334 328 328 330 329 328 329 331 331 328 326 321 314 311 311 309 306 303 301 299 299 300 300 299 298 296 294 292 290 288 286 284 283 281 280 279 278 277 275 274 273 272 271 270 270 269 269 268 268 267 267 267 267 267 267 266 266 265 265 265 265
346 345 346 345 343 342 342 342 341 339 338 338 338 339 339 338 337 337 338 338 338 337 334 334 337 334 328 328 331 330 330 331 333 332 329 328 321 314 313 314 310 307 304 302 301 300 301 301 300 298 297 295 293 291 289 287 285 284 282 280 279 277 276 276 275 274 273 272 272 272 271 271 270 269 267 266 265 265 265 264 264 264 264 263 263 263
346 345 345 345 344 342 341 341 341 340 339 340 340 340 340 339 339 338 338 338 340 338 333 333 337 335 330 329 331 331 330 332 334 332 330 328 321 316 316 314 310 307 305 303 303 302 302 302 301 299 298 296 294 292 290 288 287 285 284 282 280 279 277 276 276 275 274 273 273 272 272 272 271 270 269 268 267 265 264 263 262 262 262 262 262 262
346 345 344 344 344 343 342 342 343 343 342 342 341 341 342 341 340 340 338 337 340 339 334 332 336 336 331 330 331 331 331 334 335 333 332 329 321 316 316 313 309 307 305 304 304 304 304 304 303 301 299 297 295 293 291 289 287 286 285 284 282 281 279 278 277 277 276 276 275 274 273 272 272 271 270 269 268 267 266 264 264 263 263 262 262 262
347 346 345 344 345 344 344 345 345 345 344 343 342 342 343 342 342 340 337 336 340 341 336 332 334 335 334 334 333 331 332 335 337 336 335 330 322 318 316 313 310 308 307 306 306 305 305 306 305 303 301 299 297 295 293 291 289 287 286 285 284 283 281 279 277 276 276 276 275 275 275 274 273 272 271 270 269 268 267 266 266 265 265 264 264 263
347 347 346 345 345 345 345 345 345 345 344 343 342 342 343 343 343 341 337 336 339 341 339 335 334 336 338 338 336 333 333 337 340 339 336 329 322 320 319 317 316 313 311 309 308 307 306 306 305 304 302 300 298 296 294 293 291 290 289 288 287 286 285 283 280 278 277 276 275 275 275 275 274 274 273 273 271 270 269 268 267 266 265 265 265 265
347 347 347 346 345 345 345 344 345 345 344 343 343 343 344 343 342 341 337 336 338 339 340 340 337 338 341 341 338 334 334 338 341 339 334 329 326 324 322 322 322 320 318 315 312 310 308 307 307 305 302 300 298 295 294 292 291 291 290 290 290 290 289 288 286 284 282 280 279 278 277 276 275 275 275 274 273 272 270 269 268 268 267 267 266 266
348 348 348 347 346 346 346 344 344 345 344 343 343 343 344 342 342 341 338 337 339 340 341 343 341 341 343 342 340 335 333 337 342 340 336 335 333 331 328 327 327 325 323 320 317 314 312 311 311 309 307 303 300 297 294 292 290 290 290 291 291 292 291 291 290 288 287 285 284 283 282 280 278 277 276 275 273 273 272 271 271 270 269 269 268 268
348 348 348 348 347 347 346 344 345 345 344 343 343 343 343 342 341 340 338 339 342 342 343 343 343 343 343 342 340 336 333 338 346 344 341 340 339 336 333 331 330 328 326 323 321 318 316 315 314 313 312 309 305 301 297 294 292 291 291 292 292 292 292 292 291 290 289 288 288 287 285 284 282 280 278 277 276 275 275 274 273 272 271 271 269 268
349 348 348 348 348 347 347 345 345 345 344 343 343 343 342 341 342 340 338 340 344 346 346 345 343 343 343 342 342 339 335 340 349 347 343 342 340 337 336 334 332 331 329 326 322 319 317 316 315 315 314 312 309 304 300 297 296 295 294 294 293 293 292 291 291 290 289 289 289 288 286 285 284 282 280 279 279 279 278 276 275 274 274 273 272 271
349 349 349 349 348 347 347 346 345 346 345 343 342 343 342 342 343 342 341 342 345 347 348 347 344 344 343 342 345 343 337 340 349 349 345 343 341 338 338 337 335 333 331 327 323 320 318 317 316 316 315 313 310 307 303 301 300 299 298 297 296 294 292 290 289 289 289 289 289 288 287 285 283 281 280 280 280 279 278 277 277 277 277 275 274 273
351 350 350 350 349 349 348 347 346 346 345 343 343 344 344 344 345 346 344 345 346 345 346 346 345 344 344 344 348 348 341 341 348 349 345 345 342 339 338 338 337 335 332 329 326 323 321 319 318 317 316 313 310 307 305 304 303 303 302 300 297 294 292 290 289 289 289 289 289 288 287 284 282 281 280 279 278 278 277 277 278 278 278 277 276 275
353 352 351 351 351 350 349 348 347 346 346 346 346 346 346 345 347 348 346 345 346 346 346 346 346 347 347 347 350 351 346 342 345 347 345 345 344 340 338 338 337 336 333 330 328 326 323 321 319 318 316 314 312 309 307 306 305 305 305 303 299 297 294 292 292 291 291 291 290 288 286 284 283 282 281 280 279 279 278 277 278 277 276 276 275 274
355 354 353 352 352 351 350 349 349 349 349 349 347 346 346 346 347 349 346 344 345 347 348 349 350 350 349 347 349 351 347 344 345 347 346 345 344 342 340 340 338 337 335 333 330 329 326 324 323 321 320 318 316 314 312 310 309 308 307 305 302 300 299 297 296 296 295 294 292 289 288 287 287 285 284 283 283 282 281 280 279 277 276 275 274 274
356 355 355 354 353 353 352 351 351 351 350 349 348 347 348 348 348 350 348 346 347 349 350 351 352 351 348 346 348 350 349 346 347 348 348 347 346 344 343 343 341 339 338 335 333 331 329 327 326 324 322 322 321 320 319 318 317 315 313 311 308 305 303 302 301 300 297 294 291 289 289 288 288 287 286 285 284 283 282 281 279 278 277 276 275 275
358 357 356 355 354 354 353 352 352 352 351 350 350 349 349 349 349 349 349 349 348 349 351 352 353 352 349 347 349 352 351 349 348 349 349 349 348 347 347 347 346 343 341 338 336 334 331 329 328 326 324 323 323 322 322 323 323 321 319 317 315 312 310 308 307 304 299 294 292 291 291 289 288 287 287 286 285 284 283 281 281 280 279 279 278 277
359 358 357 356 356 355 354 353 352 352 352 352 351 351 350 350 349 348 349 350 349 349 351 352 353 354 352 349 350 352 353 352 350 350 350 350 350 349 349 349 349 346 344 341 338 337 335 331 330 330 328 326 325 324 323 324 325 324 323 321 320 318 316 313 310 305 300 296 295 294 292 290 289 288 288 288 286 285 284 283 283 282 282 281 280 279
359 359 358 357 356 356 356 354 353 353 353 352 351 351 351 350 349 348 348 349 350 351 352 354 355 355 353 351 351 352 353 354 354 352 351 351 351 351 350 350 350 349 347 344 341 340 340 336 334 333 332 329 327 325 324 324 326 326 325 324 323 322 319 315 311 306 302 300 297 295 292 291 290 290 290 289 288 286 285 285 284 284 283 283 282 281
1 0 359 358 357 357 357 355 354 353 353 352 351 351 351 350 349 349 349 351 353 353 354 355 355 356 355 353 353 353 352 354 355 354 352 351 350 350 351 352 352 352 349 346 343 341 341 341 339 337 334 331 329 327 325 326 328 329 328 327 326 324 320 316 312 309 307 305 301 297 293 292 291 291 290 289 288 287 285 284 284 283 283 283 282 281
2 1 0 359 358 357 357 356 355 354 353 353 352 350 349 350 351 351 352 353 354 354 355 355 355 356 356 354 353 354 353 352 353 353 353 352 350 350 351 351 352 352 351 348 345 341 341 343 343 340 335 331 329 328 327 328 330 331 330 329 328 325 321 318 315 312 310 307 303 298 295 293 292 291 289 288 287 286 284 284 284 283 283 282 281 279
3 2 1 360 359 358 357 356 356 355 354 353 352 350 349 351 353 354 354 354 353 354 356 356 356 356 356 354 353 353 353 352 352 352 351 351 350 350 351 351 350 350 350 349 347 345 344 345 345 342 337 333 330 328 328 329 331 333 332 331 328 325 322 320 316 313 310 306 302 299 298 296 293 291 289 288 287 285 284 284 285 285 283 282 280 278
3 2 1 0 359 358 358 357 356 356 355 353 352 351 351 352 353 354 354 354 354 354 355 357 356 355 355 354 352 353 352 351 351 351 350 350 350 350 351 351 349 348 348 349 350 350 349 348 346 344 339 335 333 331 331 331 334 335 334 331 330 327 325 322 317 312 310 307 305 303 301 298 294 293 292 290 288 287 286 287 287 286 284 282 280 278
3 2 2 1 360 359 359 358 357 356 355 354 352 352 353 353 352 353 353 354 355 354 355 356 356 355 355 354 353 352 353 351 351 351 350 349 349 351 351 350 349 347 347 349 352 353 352 350 347 344 341 338 336 336 335 335 336 336 334 332 331 330 327 322 317 314 312 311 310 308 304 300 298 296 294 292 290 290 290 291 291 289 288 285 282 279
3 3 2 2 1 360 359 358 357 356 355 354 353 353 353 353 352 352 352 353 354 354 354 356 356 355 355 355 353 353 353 352 351 351 351 349 349 351 350 349 348 347 348 350 352 352 352 350 348 346 343 341 341 340 338 336 335 335 334 333 333 333 329 323 318 317 317 316 314 311 308 305 303 300 297 295 294 294 295 295 295 294 293 289 284 278
3 3 3 2 2 1 360 359 357 355 355 354 354 354 354 353 352 352 352 353 354 354 355 356 357 356 356 356 354 353 354 353 352 351 351 350 350 350 349 348 347 348 349 350 351 351 351 350 350 349 347 344 344 343 340 337 335 334 334 335 335 334 330 324 321 321 321 319 317 315 312 310 307 304 301 300 299 299 300 299 298 297 293 288 283 279
3 3 3 2 1 1 0 359 358 356 355 354 354 354 353 353 352 352 353 353 354 355 355 356 357 357 357 356 355 354 354 354 352 351 351 351 351 351 350 349 349 349 349 350 350 351 351 350 350 350 348 346 344 343 342 339 334 333 335 338 338 335 330 325 325 326 325 321 319 318 316 314 311 308 305 303 304 304 303 301 298 295 291 289 288 287
2 2 2 2 1 0 359 359 358 357 355 355 354 353 353 353 354 354 354 354 355 356 356 356 357 356 356 357 356 355 354 354 353 352 351 351 352 351 351 350 351 351 349 349 350 351 351 351 350 350 349 347 345 344 343 340 335 333 336 341 340 335 330 328 330 331 327 322 321 320 318 316 314 310 307 307 308 307 303 300 297 296 297 299 299 295
3 2 1 1 0 359 358 357 357 357 356 355 355 354 354 354 355 356 355 355 355 355 356 357 358 357 355 356 357 356 355 355 354 352 352 353 354 353 351 351 352 352 350 350 351 351 351 351 350 350 349 348 346 345 344 341 337 335 339 343 341 335 331 332 335 334 328 323 322 322 321 319 315 312 310 310 310 308 304 302 303 307 309 308 302 297
3 2 2 1 360 359 357 357 357 357 356 356 356 355 355 355 356 356 356 355 355 355 356 357 359 359 356 355 355 356 356 356 355 353 352 353 354 354 352 352 352 352 351 352 352 352 351 351 351 350 350 348 347 346 345 343 339 338 341 344 340 334 334 337 338 333 327 324 324 324 323 322 318 315 314 313 311 309 307 310 315 316 312 307 301 296
3 2 2 1 360 359 358 357 357 357 356 356 355 355 355 356 356 356 356 355 355 355 356 356 358 360 358 355 354 356 357 356 356 355 353 353 354 354 353 353 354 353 352 352 352 352 352 352 351 351 350 349 348 347 347 345 341 340 343 343 338 335 339 342 340 333 328 327 327 327 327 325 322 319 317 316 314 314 318 322 321 316 309 303 297 293